Regional Weather Roundup
Issued by NWS Grand Forks, ND

Home | Current Version | Previous Version | Text Only | Print | Product List | Glossary Off
Versions: 1 2 3 4 5 6 7 8 9 10 11 12 13 14 15 16 17 18 19 20 21 22 23 24 25 26 27 28 29 30 31 32 33 34 35 36 37 38 39 40 41 42 43 44 45 46 47 48 49 50

571
ASUS43 KFGF 070210
RWRFGF
PRAIRIE TO PINES  WEATHER ROUNDUP
NATIONAL WEATHER SERVICE EASTERN NORTH DAKOTA/GRAND FORKS ND
800 PM CST SAT FEB 06 2016

 **SATELLITE DATA USED TO AUGMENT SKY COVER AT AUTOMATED STATIONS**
 *****  WEATHER ACROSS EASTERN NORTH DAKOTA  *****

CITY           SKY/WX    TMP DP  RH WIND       PRES   REMARKS
GRAND FORKS    CLOUDY    40  32  73 W15       29.52S
GRAND FRKS AFB CLOUDY    40  32  74 W21       29.52R
GRAND FRKS NWS   N/A     37 N/A N/A W15         N/A
DEVILS LAKE    NOT AVBL
FARGO          CLOUDY    39  33  79 SW12      29.61F
WAHPETON ARPT  CLOUDY    36  32  87 SW10      29.68F
$$

 ***** WEATHER ACROSS CENTRAL AND WESTERN NORTH DAKOTA  *****

CITY           SKY/WX    TMP DP  RH WIND       PRES   REMARKS
BISMARCK       PTCLDY    47  22  37 W20G29    29.71R
MINOT          LGT RAIN  41  32  70 W32G39    29.59R
JAMESTOWN      MOCLDY    37  32  82 SW12      29.63S
MINOT AFB      LGT RAIN  38  37  99 W26G41    29.57R
GARRISON         N/A     40  33  76 W35G52    29.65R
WILLISTON      PTCLDY    39  26  59 W21       29.78R
DICKINSON      MOCLDY    37  26  64 W25G36    29.78R
HETTINGER      CLEAR     39  24  55 NW33G46   29.85R
$$

 *****  OTHER AIRPORT OBSERVATIONS IN OUR AREA  *****

CITY           SKY/WX    TMP DP  RH WIND       PRES   REMARKS
WALHALLA       FAIR      41  32  70 W15G25    29.45F
GRAFTON AIRPOR MOCLDY    37  34  87 W18       29.51F
VALLEY CITY AR FAIR      36  36 100 SW14      29.64S
CANDO          NOT AVBL
CAVALIER APRT  FAIR      41  32  70 W18       29.46F
GWINNER          N/A     36  34  93 SW14      29.69F
SHEYENNE NWR     N/A     36  35  95 SW8       29.95S
ROLLA          FAIR      37  32  81 W16       29.45F
 ***** THE ABOVE OBSERVATIONS ARE NON NWS ARE NOT QUALITY
       CONTROLLED AND MAY MIS-REPORT RAIN FOR SNOW...
$$

  *****  WEATHER ACROSS NORTHERN MINNESOTA  *****

CITY           SKY/WX    TMP DP  RH WIND       PRES   REMARKS
FLAG ISLAND    CLOUDY    30  28  93 SE9       29.51F WCI  22
WARROAD        CLOUDY    32  28  86 SE6       29.50F
ROSEAU         CLOUDY    34  28  80 S13       29.49F WCI  25
HALLOCK        CLOUDY    36  32  87 S12       29.47F
THF RVR FALLS  CLOUDY    37  30  75 SW13      29.53F
BAUDETTE       CLOUDY    32  26  78 SE9       29.53F WCI  24
WASKISH        CLOUDY    36  28  75 S5        29.55F
CROOKSTON      MOCLDY    36  34  93 SW10      29.56S
GREENBUSH NDAW   N/A     36  32  87 SW12        N/A
$$
  *****  WEATHER ACROSS CENTRAL AND WEST MINNESOTA  *****

CITY           SKY/WX    TMP DP  RH WIND       PRES   REMARKS
FOSSTON        CLOUDY    34  30  86 S12       29.57F
BEMIDJI        CLOUDY    35  29  79 S10       29.59F
PARK RAPIDS    CLOUDY    36  30  79 SW9       29.63F
ELBOW LAKE     LGT RAIN  33  32  94 SW9       29.72F
WADENA         CLOUDY    34  30  86 SW12G18   29.68S
DETROIT LAKES  PTCLDY    36  32  87 SW10      29.64F
MOORHEAD       CLOUDY    36  34  93 SW6       29.63F
FERGUS FALLS   LGT RAIN  36  36 100 S9        29.71F
MORRIS MN      CLOUDY    36  30  80 SW10      29.74F
STAPLES        CLOUDY    34  32  93 SW10      29.70F
$$
  *****  WEATHER ELSEWHERE ACROSS MINNESOTA  *****

CITY           SKY/WX    TMP DP  RH WIND       PRES   REMARKS
DULUTH         FLURRIES  32  24  72 S14       29.70F WCI  22
INTRNTL FALLS  LGT SNOW  31  29  92 SE6       29.58F FOG
ELY            LGT SNOW  30  28  93 S7        29.67F WCI  23
CLOQUET        LGT SNOW  34  27  75 S13G18    29.71F WCI  25
WHEATON        CLOUDY    37  34  87 S8        29.72F
BRAINERD       FLURRIES  34  28  79 S15       29.71R WCI  24
HIBBING        LGT SNOW  30  26  85 S7        29.66F FOG     WCI  23
ALEXANDRIA     CLOUDY    35  30  82 SW12      29.74F
SAINT CLOUD    CLOUDY    34  28  79 S10       29.76F
MINNEAPOLIS    LGT RAIN  36  27  69 SW12      29.85S
$$

  *****  WEATHER ACROSS SOUTH DAKOTA  *****

CITY           SKY/WX    TMP DP  RH WIND       PRES   REMARKS
SIOUX FALLS    CLOUDY    33  26  75 SW9       29.83F
BROOKINGS      CLOUDY    31  28  89 S6        29.81S
WATERTOWN      CLOUDY    34  28  79 S7        29.74F
HURON          CLOUDY    39  31  72 W8        29.80S
SISSETON         N/A     38  32  79 W14       29.70F
ABERDEEN       MOCLDY    35  30  82 S10       29.72F
MITCHELL       CLOUDY    42  31  64 W14       29.84R
PIERRE         PTCLDY    43  28  55 W12       29.85F
MOBRIDGE       CLEAR     42  27  55 W10       29.75S
RAPID CITY     CLOUDY    40  24  53 NW25G39   29.97R
$$

  *****  SOME WEATHER IN NEARBY STATES *****

CITY           SKY/WX    TMP DP  RH WIND       PRES   REMARKS
GLASGOW MT     MOCLDY    35  29  78 W22G33    29.93R WCI  23
GREAT FALLS MT PTCLDY    32  16  51 W10       30.14R WCI  24
CHEYENNE WY    CLOUDY    38  16  40 W9        30.09R
SCOTTSBLUFF NE CLOUDY    41  23  48 W22G32    30.01R
OMAHA NE       CLOUDY    40  27  59 S9        29.99F
DES MOINES IA  CLOUDY    36  30  79 S9        30.02F
DAVENPORT IA   CLEAR     30  27  88 S5        30.10F
CHICAGO IL     CLEAR     33  27  78 S7        30.11F
EAU CLAIRE WI  CLOUDY    31  23  72 S14G22    29.88F WCI  21
LA CROSSE WI   CLOUDY    30  25  81 S14       29.98F WCI  19
$$

  *****  SOME NATIONAL WEATHER *****

CITY           SKY/WX    TMP DP  RH WIND       PRES   REMARKS
LA GUARDIA NY  CLOUDY    39  21  48 SW9       30.29S
RALEIGH NC     CLOUDY    41  21  44 E6        30.29F
ATLANTA GA     PTCLDY    44  19  36 N6        30.22F
NEW ORLEANS LA PTCLDY    48  28  46 W3        30.29R
OKLAHOMA CITY  CLOUDY    38  27  64 S7        30.26F
ALBUQUERQUE NM CLOUDY    42  15  33 N9        30.36R
SALT LAKE CITY PTCLDY    31  24  75 NW3       30.46R
LOS ANGELES CA CLEAR     66  27  23 W8        30.14S
BOISE ID       CLOUDY    39  32  76 W6        30.43S
SEATTLE WA     MOCLDY    44  39  82 CALM      30.46R
$$

*** WEATHER ACROSS MANITOBA...SASKATCHEWAN AND ONTARIO ***
                ***ONTARIO***

CITY           SKY/WX    TMP DP  RH WIND       PRES   REMARKS
GERALDTON      PTCLDY    -2 -11  65 E6        29.98S WCI -14
THUNDER BAY    LGT SNOW  21  19  93 E13G18    29.85F WCI   9
SIOUX LOOKOUT  LGT SNOW  16  14  93 SE9       29.68F WCI   4
TORONTO        MOCLDY    34  18  51 SW10      30.13F
BIG TROUT LK   CLEAR    -18 -26  69 SE7       30.00F WCI -35
PICKLE LAKE    CLOUDY    -2 -13  60 E13G20    29.84F WCI -21
DRYDEN         LGT SNOW  21  19  93 E8        29.62F VSB 1   WCI  12
KENORA         LGT SNOW  25  23  93 SE13G18   29.52F DRFTSNOWWCI  13
$$
                *** MANITOBA***

CITY           SKY/WX    TMP DP  RH WIND       PRES   REMARKS
BRANDON        MOCLDY    36  32  87 W20       29.40S
DAUPHIN        PTCLDY    21  19  93 W9        29.37S WCI  11
ISLAND LAKE    CLOUDY     0  -8  71 E7G22     29.73F WCI -13
PILOT MOUND      N/A     39  34  81 W9          N/A
THE PAS        FLURRIES  12   9  85 E7        29.49S WCI   2
THOMPSON       LGT SNOW  -6 -11  77 E8        29.70F DRFTSNOWWCI -21
WINNIPEG       MOCLDY    30  27  86 S12       29.42F WCI  21
LYNN LAKE      LGT SNOW  -4  -8  84 E9        29.61R WCI -20
CHURCHILL      CLEAR    -29 -36  68 SE9       30.11S WCI -51
GILLAM         CLOUDY   -18 -26  69 E8        29.93F WCI -37
$$
                ***SASKATCHEWAN***

CITY           SKY/WX    TMP DP  RH WIND       PRES   REMARKS
ESTEVAN        PTCLDY    36  28  75 W31G40    29.62R
KINDERSLEY     PTCLDY    34  23  64 W26       29.79R WCI  21
LLOYDMINSTER   FLURRIES  32  27  80 W32G39    29.70R WCI  17
PRINCE ALBERT  CLOUDY    37  28  70 W9        29.48R
REGINA         PTCLDY    36  25  64 NW32G45   29.64R
YORKTON        LGT RAIN  34  32  93 NW17G24   29.46R WCI  23
N. BATTLEFORD  CLOUDY    36  25  64 W33G47    29.65R
LA RONGE       LGT SNOW  16  12  86 N7        29.47R WCI   6
SASKATOON      CLOUDY    37  25  60 W25G33    29.63R
SWIFT CURRENT  CLEAR     36  21  55 W24G35    29.78R
$$
NOTE: THESE ARE AUTOMATED STATIONS WITH LIMITED QUALITY CONTROL
      "FAIR" INDICATES FEW OR NO CLOUDS BELOW 12,000 FEET WITH NO
      SIGNIFICANT WEATHER AND/OR OBSTRUCTIONS TO VISIBILITY.
      SKY/WX - SKY CONDITION AND SIGNIFICANT WEATHER.
      TMP - AIR TEMPERATURE.    DP   - DEWPOINT TEMPERATURE.
      RH  - RELATIVE HUMIDITY.  PRES - PRESSURE.
      HX  - HEAT INDEX.         WCI  - WIND CHILL INDEX.
$




USA.gov is the U.S. government's official web portal to all federal, state and local government web resources and services.